[[{"header":{"parameterUnit":"m.s-1","parameterCategory":1,"la1":30.2991,"la2":30.254,"lo1":-89.0895,"lo2":-89.0444,"dy":0.0017,"dx":0.0017,"nx":28,"ny":28,"refTime":"2025-07-17T21:00:00:Z","depth":0,"parameterNumber":2,"parameterNumberName":"U-component_of_WINDS"},"data":[0,0,0,0,0,0,0,0,0,0,0,0,0,0,0,0,0,0,0,0,0,0,0,0,0,0,0,0,0,0,0,0,0,0,0,0,0,0,0,0,0,0,0,0,0,0,0,0,0,0,0,0,0,0,0,0,0,0,3.4113,3.4112,0,3.4052,3.4051,3.405,3.3944,3.3942,3.394,3.3939,3.3877,3.3877,3.3878,0,0,0,0,0,0,0,0,0,0,0,0,0,3.4141,3.4141,3.4113,3.4112,3.4111,3.4052,3.4051,3.405,3.3945,3.3942,3.394,3.3938,3.3877,3.3877,3.3878,0,0,0,0,0,0,0,0,0,0,0,0,0,3.4109,3.4141,3.4113,3.4052,3.4046,3.4052,3.4051,3.405,3.3945,3.3942,3.3939,3.3937,3.3877,3.3877,3.3878,3.3939,0,0,3.3879,3.3879,0,0,0,0,0,0,0,0,3.4111,3.4108,3.4061,3.4056,3.4049,3.4003,3.4038,3.4013,3.3946,3.3983,3.3939,3.3935,3.3921,3.3918,3.3913,3.3936,3.3934,3.3879,3.3879,3.3879,3.3879,0,0,0,0,0,0,0,3.4113,3.411,3.4089,3.4061,3.4053,3.4028,3.402,3.4033,3.397,3.398,3.3972,3.3966,3.3917,3.3913,3.3911,3.3933,3.3879,3.3879,3.3879,3.3879,3.4003,3.4006,0,0,0,0,0,0,3.4124,3.4113,3.4091,3.4087,3.4073,3.403,3.4021,3.4021,3.3969,3.3959,3.3969,3.3962,3.3914,3.391,3.3908,3.3976,3.3879,3.3879,3.3879,3.4,3.4004,3.4007,0,0,0,0,0,0,3.4125,3.4123,3.4093,3.4098,3.4092,3.4032,3.4033,3.4021,3.4016,3.3961,3.3949,3.3976,3.3911,3.3908,3.3932,3.3972,3.3879,3.388,3.3997,3.4001,3.4006,3.4113,0,0,0,0,0,0,3.4126,3.4124,3.4147,3.4099,3.4092,3.4118,3.4035,3.4022,3.4017,3.4007,3.3964,3.3954,3.3909,3.3932,3.3933,3.3971,3.388,3.3993,3.3999,3.4004,3.4106,3.4121,3.4134,0,0,0,0,0,3.4128,3.418,3.4148,3.4146,3.4119,3.412,3.4116,3.4062,3.4021,3.4043,3.4007,3.3956,3.3969,3.3936,3.3935,3.3974,3.399,3.3997,3.4004,3.4099,3.4118,3.4134,0,0,0,0,0,0,3.4234,3.4172,3.4137,3.4175,3.4154,3.4103,3.4129,3.4084,3.4074,3.4065,3.3999,3.3991,3.4024,3.4002,3.3966,3.4031,3.3971,3.3978,3.4044,3.4061,3.4075,3.4079,3.388,0,0,0,0,0,3.4262,3.4268,3.4214,3.4253,3.4244,3.4189,3.4187,3.4148,3.4123,3.4114,3.408,3.4059,3.4058,3.4059,3.4055,3.4103,3.4092,3.413,3.4144,3.4156,3.4162,3.4185,3.4201,3.403,3.403,3.403,0,0,3.4319,3.4286,3.4294,3.4273,3.4252,3.426,3.4182,3.4194,3.4199,3.4116,3.4136,3.4111,3.4083,3.412,3.4134,3.4102,3.4207,3.4165,3.4175,3.4174,3.4194,3.421,3.4225,3.4035,3.4034,3.4034,0,0,3.4427,3.4404,3.4433,3.4414,3.4383,3.4346,3.4353,3.4309,3.4289,3.4309,3.4246,3.4252,3.4252,3.4234,3.4225,3.4329,3.428,3.433,3.4402,3.4426,3.4439,3.4451,3.4486,3.45,3.4337,3.4337,3.4337,0,3.4503,3.4512,3.4454,3.4469,3.4462,3.4387,3.4416,3.4401,3.4371,3.4367,3.4333,3.4331,3.4307,3.4337,3.4363,3.4358,3.4364,3.4333,3.4442,3.4453,3.4463,3.4496,3.451,3.4343,3.4342,3.4341,3.4341,0,3.4605,3.4613,3.464,3.4612,3.4608,3.4631,3.4577,3.458,3.4541,3.4508,3.4529,3.4498,3.4486,3.4491,3.4453,3.4517,3.4498,3.4454,3.4391,3.4486,3.4516,3.4528,3.4351,3.4349,3.4347,3.4346,0,0,3.4777,3.4717,3.4728,3.4714,3.4676,3.468,3.47,3.4688,3.4692,3.4674,3.4689,3.4691,3.465,3.464,3.46,3.4621,3.4703,3.4573,3.4572,3.4597,3.477,3.4802,3.4817,3.4672,3.4674,3.4676,3.4771,0,3.4875,3.4904,3.4853,3.4894,3.49,3.483,3.4847,3.4826,3.4796,3.4797,3.4764,3.4766,3.4713,3.4706,3.4724,3.4689,3.4736,3.4682,3.4684,3.4685,3.4691,3.4833,3.4867,3.4958,3.4783,3.4785,3.4786,0,3.4993,3.4981,3.5023,3.4982,3.4982,3.4999,3.4983,3.4986,3.496,3.4937,3.4927,3.488,3.4896,3.4838,3.486,3.4824,3.4822,3.4806,3.4808,3.4804,3.474,3.4832,3.4986,3.5,3.4804,3.4803,3.4802,0,3.5112,3.5107,3.5131,3.5122,3.5074,3.5087,3.5068,3.504,3.5036,3.5024,3.502,3.5011,3.5005,3.4998,3.495,3.4912,3.4977,3.4915,3.4958,3.4959,3.4973,3.4972,3.5128,3.4976,3.4975,3.4975,3.4975,0,3.5227,3.5255,3.5183,3.5198,3.5227,3.5169,3.52,3.5174,3.515,3.5158,3.5098,3.5108,3.5044,3.5047,3.501,3.5032,3.5031,3.5012,3.5002,3.5016,3.5019,3.5013,3.5004,3.4979,3.4978,3.4977,3.4977,0,3.5363,3.5317,3.5338,3.5292,3.5281,3.5305,3.5265,3.5277,3.5244,3.5256,3.5255,3.5204,3.5204,3.5155,3.5146,3.5121,3.5159,3.5138,3.5168,3.516,3.5205,3.5201,3.536,3.5377,3.5217,3.5218,3.522,0,3.5438,3.5457,3.5414,3.5415,3.5399,3.5402,3.5398,3.5342,3.5341,3.5313,3.5329,3.5324,3.5317,3.532,3.5282,3.5274,3.5251,3.5308,3.5249,3.5263,3.525,3.5248,3.5249,3.5319,3.5321,3.5323,3.5324,0,3.5575,3.5551,3.5547,3.5536,3.5533,3.5521,3.5506,3.551,3.545,3.5451,3.545,3.5445,3.5435,3.5431,3.5416,3.5397,3.535,3.5343,3.5352,3.5367,3.5382,3.5373,3.5199,3.5339,3.5338,3.5337,3.5336,3.5335,3.5681,3.5695,3.5667,3.5665,3.5647,3.5635,3.5643,3.5612,3.561,3.5597,3.5565,3.557,3.5544,3.5519,3.5504,3.5507,3.5479,3.5492,3.5495,3.5499,3.5507,3.5384,3.5505,3.5504,3.5504,3.5503,3.5503,0,3.5813,3.5792,3.5791,3.5771,3.577,3.5727,3.5708,3.571,3.5714,3.5694,3.5689,3.5688,3.5684,3.5646,3.5638,3.5647,3.5626,3.5647,3.5644,3.564,3.5534,3.5526,3.5664,3.5664,3.5664,3.5664,3.5664,3.5664,3.5882,3.5903,3.5877,3.5889,3.5867,3.5871,3.5864,3.5852,3.5835,3.5837,3.5833,3.5809,3.5782,3.5771,3.5765,3.5754,3.5753,3.5781,3.5763,3.5663,3.5648,3.5633,3.5625,3.5782,3.5782,3.5868,3.5869,3.587]},{"header":{"parameterUnit":"m.s-1","parameterCategory":1,"la1":30.2991,"la2":30.254,"lo1":-89.0895,"lo2":-89.0444,"dy":0.0017,"dx":0.0017,"nx":28,"ny":28,"refTime":"2025-07-17T21:00:00:Z","depth":0,"parameterNumber":3,"parameterNumberName":"V-component_of_WINDS"},"data":[0,0,0,0,0,0,0,0,0,0,0,0,0,0,0,0,0,0,0,0,0,0,0,0,0,0,0,0,0,0,0,0,0,0,0,0,0,0,0,0,0,0,0,0,0,0,0,0,0,0,0,0,0,0,0,0,0,0,3.3428,3.3428,0,3.3438,3.3439,3.3439,3.3388,3.3386,3.3385,3.3383,3.3395,3.3396,3.3398,0,0,0,0,0,0,0,0,0,0,0,0,0,3.3365,3.3366,3.3427,3.3428,3.3428,3.3438,3.3439,3.3439,3.3388,3.3386,3.3384,3.3383,3.3394,3.3396,3.3398,0,0,0,0,0,0,0,0,0,0,0,0,0,3.3386,3.3367,3.3427,3.3404,3.3402,3.3438,3.3439,3.3439,3.3388,3.3386,3.3384,3.3382,3.3394,3.3396,3.3399,3.3459,0,0,3.3406,3.3407,0,0,0,0,0,0,0,0,3.3384,3.3388,3.3407,3.3405,3.3403,3.3409,3.3421,3.3445,3.3389,3.3393,3.3383,3.3381,3.3402,3.3403,3.341,3.3459,3.346,3.3407,3.3408,3.3409,3.341,0,0,0,0,0,0,0,3.3383,3.3387,3.3432,3.3407,3.3405,3.3393,3.3394,3.3425,3.341,3.3393,3.3389,3.3391,3.34,3.3408,3.341,3.346,3.3406,3.3409,3.341,3.3411,3.3562,3.3564,0,0,0,0,0,0,3.3385,3.3386,3.3431,3.3432,3.3388,3.3396,3.3397,3.341,3.3409,3.3407,3.3393,3.3389,3.3405,3.3407,3.341,3.3482,3.3409,3.3412,3.3413,3.3559,3.3562,3.3565,0,0,0,0,0,0,3.3383,3.3389,3.3431,3.3408,3.3413,3.34,3.3415,3.3411,3.3419,3.3409,3.3407,3.3404,3.3403,3.3407,3.3448,3.3482,3.3413,3.3415,3.3556,3.356,3.3564,3.3625,0,0,0,0,0,0,3.3382,3.3389,3.3411,3.3409,3.3414,3.3468,3.3417,3.3413,3.3423,3.3418,3.3419,3.3417,3.3402,3.3444,3.345,3.3484,3.3417,3.3553,3.3558,3.3563,3.362,3.3631,3.364,0,0,0,0,0,3.338,3.3427,3.3412,3.3418,3.3441,3.347,3.3472,3.3454,3.3426,3.3449,3.3443,3.3417,3.3477,3.3449,3.3455,3.349,3.3551,3.3557,3.3562,3.3616,3.3629,3.364,0,0,0,0,0,0,3.3433,3.3427,3.341,3.3458,3.3465,3.3461,3.3488,3.3468,3.3482,3.3477,3.3453,3.3454,3.3499,3.3499,3.3467,3.355,3.3509,3.3517,3.3548,3.356,3.357,3.3569,3.3419,0,0,0,0,0,3.345,3.3473,3.3467,3.351,3.3515,3.3501,3.3513,3.3498,3.3504,3.3507,3.3504,3.3511,3.3532,3.3546,3.3565,3.3621,3.3621,3.3648,3.3658,3.3666,3.3672,3.3704,3.3716,3.3583,3.3583,3.3583,0,0,3.3486,3.3486,3.3502,3.3521,3.3524,3.355,3.3504,3.3532,3.3551,3.3511,3.355,3.3549,3.3555,3.3605,3.3626,3.3605,3.3709,3.3673,3.3679,3.3681,3.3711,3.3723,3.3734,3.3587,3.3586,3.3586,0,0,3.3565,3.3566,3.3603,3.3609,3.3615,3.3606,3.3615,3.3615,3.3613,3.3652,3.3623,3.3646,3.3682,3.3688,3.3696,3.3781,3.3758,3.3788,3.3839,3.387,3.388,3.3889,3.392,3.3932,3.3794,3.3795,3.3795,0,3.3608,3.3645,3.3625,3.3656,3.3666,3.3632,3.3671,3.3677,3.3689,3.3697,3.3674,3.372,3.3722,3.3773,3.3794,3.3802,3.3813,3.3787,3.388,3.3889,3.3897,3.3927,3.3939,3.3798,3.3798,3.3797,3.3797,0,3.3699,3.3725,3.3755,3.3768,3.3782,3.3816,3.3803,3.3819,3.3804,3.3799,3.384,3.3842,3.3861,3.3872,3.3857,3.3922,3.3909,3.3884,3.3843,3.3914,3.3941,3.3953,3.3803,3.3802,3.3801,3.38,0,0,3.3808,3.3813,3.3824,3.3831,3.3837,3.3857,3.3891,3.391,3.3926,3.3936,3.3965,3.3998,3.3975,3.3984,3.397,3.3998,3.4067,3.3969,3.3969,3.3987,3.414,3.4159,3.4172,3.4052,3.4054,3.4055,3.4139,0,3.3886,3.3944,3.3928,3.3986,3.4011,3.3981,3.4011,3.4019,3.4016,3.4037,3.4033,3.4057,3.4024,3.403,3.4056,3.4053,3.4097,3.4046,3.4079,3.408,3.4078,3.4186,3.4206,3.4285,3.415,3.4152,3.4153,0,3.3983,3.3998,3.4059,3.4064,3.4073,3.41,3.4118,3.4139,3.4148,3.4144,3.4156,3.4138,3.4173,3.4132,3.4181,3.4148,3.416,3.4161,3.4164,3.4166,3.4121,3.4192,3.431,3.4322,3.417,3.4168,3.4167,0,3.4058,3.4094,3.4135,3.4142,3.4148,3.4168,3.4171,3.4178,3.4192,3.4208,3.4217,3.4237,3.4248,3.4264,3.4253,3.4224,3.4304,3.4262,3.4302,3.4303,3.432,3.4319,3.4442,3.4328,3.4328,3.4328,3.4328,0,3.4145,3.4184,3.4169,3.4195,3.4238,3.4221,3.4264,3.4264,3.4272,3.4297,3.4273,3.4298,3.4281,3.4305,3.4296,3.4339,3.4344,3.4343,3.434,3.4345,3.4345,3.4352,3.4346,3.4331,3.433,3.433,3.4329,0,3.4235,3.4227,3.427,3.4274,3.4275,3.4307,3.431,3.4335,3.433,3.4364,3.4371,3.4364,3.4392,3.4382,3.4411,3.4405,3.446,3.445,3.4457,3.4454,3.4495,3.4492,3.4627,3.4645,3.452,3.4521,3.4522,0,3.4291,3.4321,3.4328,3.4344,3.4349,3.4375,3.4389,3.4375,3.4391,3.4405,3.4428,3.4454,3.4473,3.4519,3.4517,3.454,3.4531,3.4577,3.4534,3.4539,3.4532,3.453,3.4534,3.4585,3.4586,3.4587,3.4588,0,3.4392,3.4388,3.4409,3.443,3.4448,3.4464,3.4477,3.4492,3.4479,3.4498,3.4526,3.4542,3.4573,3.4599,3.462,3.4625,3.4605,3.4602,3.4613,3.4618,3.4621,3.4621,3.448,3.4599,3.4598,3.4597,3.4596,3.4596,3.4467,3.4493,3.4502,3.4528,3.4537,3.4551,3.4575,3.4575,3.4598,3.4622,3.4613,3.4646,3.4657,3.4683,3.4691,3.4717,3.47,3.4715,3.4719,3.4723,3.4728,3.4618,3.4721,3.4721,3.4721,3.472,3.472,0,3.4567,3.4573,3.4597,3.4617,3.4638,3.4619,3.4634,3.4653,3.4682,3.4694,3.4714,3.4748,3.4774,3.4776,3.4801,3.4822,3.4814,3.4829,3.4827,3.4829,3.4742,3.4731,3.4835,3.4835,3.4835,3.4835,3.4835,3.4835,3.4622,3.4664,3.4662,3.4709,3.4715,3.4747,3.4757,3.4771,3.4781,3.482,3.4842,3.4843,3.4851,3.4877,3.4901,3.4901,3.4911,3.493,3.4927,3.4846,3.4834,3.4823,3.4813,3.4933,3.4933,3.5011,3.5012,3.5013]}]]